ARIANE 42P DEB, 44507

Orbit data source: Space-Track

ARIANE 42P DEB, 44507 is space debris in LEO originally from a launch on Mon, 10 Aug 1992 UTC launched from the French Guiana (FRGUI). Debris objects in space refer to the collection of defunct objects orbiting the Earth. Examples of debris include non-operational satellites, rocket bodies, and fragments generated from explosions, collisions, or faulty payload assembly.

Loading next visibility...
ARIANE 42P DEB details
Identifier
44507, 1992-052E
Orbit
LEO
Last TLE update1 day ago
Origin
Flag of FRArianespace (FR)
ManufacturerArianeGroup
MissionSpacecraft
Bus & MotorUnknown
MassUnknown
Launch date (UTC)
1992-08-10 (32 years ago)
Launch vehicleUnknown
Launch site
French Guiana (FRGUI)
Object type
Payload
Rocket body
Debris
Shape & HBRUnknown
Radar Cross SectionSmall (<0.1 m²)

Expand to show TLE details & history

TLE from 1 day ago
0 ARIANE 42P DEB
1 44507U 92052E   24360.20763583  .00005089  00000-0  19727-1 0  9996
2 44507  66.0033 286.7067 0144079 182.6122 177.4160 12.86641859251489
Epoch: 2024-12-25T04:58Z
Definitive object data (Epoch: 2024-12-25T04:58:59.735Z)
Latitude-0°
Longitude117.75311°
Altitude1,427.535 km
Speed7.096 km/s
True Right ascension19h 06m 49s
True Declination0° 00' 00"
Sunlit
Object was in daylight at TLE epoch
Visualization TLE readout
Latitude-38.13367°
Longitude-44.45097°
Altitude1,243.067 km
Speed7.273 km/s
Apparent Right ascension05h 06m 25s
Apparent Declination-77° 15' 10"
Sunlit
Object is in daylight
Visualization observer readout
Local Sidereal Time09:27:50
Azimuth193.954° SSW
Elevation-33.73°
Doppler factor1
Orbital elements
Apogee altitude1,424.262 km
Perigee altitude1,202.623 km
Semi-major axis7,691.58 km
Eccentricity0.0144079
Inclination66.0033°
RAAN286.7067°
Arg. of periapsis182.6122°
True anomaly177.48912°
Mean anomaly177.416°
Eccentric anomaly177.45269°
Mean motion3.21751 °/min
BSTAR0.019727
Orbital period111.89 mins
Loading maneuver chart data...
Loading historical data...
Loading historical data...
Loading historical data...
Loading historical data...
Loading historical data...
Loading historical data...
Loading historical data...

ARIANE 42P DEB Visibility forecast

Observer location: undefined°, undefined

Span
Click to sort rows by Start time (UTC) header in descending order
Start Az.
Max El. time (UTC)
Max El. Az.
Max El.
End time (UTC)
End Az.
16 mins2024-12-26 20:14:42.536Z189.881° SSW2024-12-26 20:22:42.536Z115.871° SE40.866°2024-12-26 20:30:42.536Z37.37° NE
13 mins2024-12-26 22:12:42.536Z255.99° W2024-12-26 22:18:42.536Z314.801° NW30.586°2024-12-26 22:25:42.536Z16.89° NNE
4 mins2024-12-27 00:15:42.536Z330.809° NNW2024-12-27 00:16:42.536Z338.311° N11.907°2024-12-27 00:19:42.536Z0.535° NNE
11 mins2024-12-27 04:10:42.536Z352.632° N2024-12-27 04:15:42.536Z39.749° NE24.418°2024-12-27 04:21:42.536Z95.085° ESE
13 mins2024-12-27 06:05:42.536Z325.776° NNW2024-12-27 06:11:42.536Z264.951° W43.99°2024-12-27 06:18:42.536Z160.041° S
|